Find STARLINK-37458

NORAD ID: 799501210 Int'l Des: 2026-161F Constellation: starlink operational

Aktuelle Ansicht

3D-Globus wird geladen...

About STARLINK-37458

STARLINK-37458 (NORAD 799501210) is a starlink constellation satellite launched Jul 14, 2026

Über STARLINK-37458

Beschreibung wird geladen...

Nächste Überflüge

Passes for default location (London). Set your location on the main map for personalized predictions.

Höhenverlauf

Loading altitude history...

Zweizeiliger Elementsatz

1 99999C 2026161F 26195.65256943 .00193910 00000-0 206490-4 0 1952
2 99999 53.1644 325.4968 0009371 280.0152 225.5441 16.09235766 14
Epoch: 14. Juli 2026 • Age: 6 hours